Regional Weather Roundup
Issued by NWS

Home | Current Version | Previous Version | Text Only | Print | Product List | Glossary On
Versions: 1 2 3 4 5 6 7 8 9 10 11 12 13 14 15 16 17 18 19 20 21 22 23 24 25 26 27 28 29 30 31 32 33 34 35 36 37 38 39 40 41 42 43 44 45 46 47 48 49 50
000
ASUS43 KBIS 032210
RWRND

NORTH DAKOTA REGIONAL WEATHER ROUNDUP
NATIONAL WEATHER SERVICE BISMARCK ND
500 PM CDT MON AUG 03 2015

NOTE: "FAIR" INDICATES FEW OR NO CLOUDS BELOW 12,000 FEET WITH NO
SIGNIFICANT WEATHER AND/OR OBSTRUCTIONS TO VISIBILITY.


NDZ001>003-009>011-017-032300-
NORTHWEST NORTH DAKOTA

CITY           SKY/WX    TMP DP  RH WIND       PRES   REMARKS
WILLISTON      SUNNY     83  43  24 E7        29.97F
MINOT          SUNNY     80  42  25 W10       29.97F
MINOT AFB      SUNNY     82  44  25 N9        29.96F
$$

NDZ018>021-031>035-040>046-032300-
SOUTHWEST NORTH DAKOTA

CITY           SKY/WX    TMP DP  RH WIND       PRES   REMARKS
BISMARCK       SUNNY     82  47  29 VRB5      29.97F
DICKINSON      SUNNY     82  48  30 VRB3      29.97F
GARRISON         N/A     79  50  36 N8        29.98F
HETTINGER ARPT SUNNY     84  49  29 VRB3      29.99F
$$

NDZ004>008-012>016-024-026-027-054-032300-
NORTHEAST NORTH DAKOTA

CITY           SKY/WX    TMP DP  RH WIND       PRES   REMARKS
GRAND FORKS    MOSUNNY   78  48  34 NW13      29.91S
GRND FRKS AFB  SUNNY     77  47  35 N14       29.93S
DEVILS LAKE    SUNNY     77  43  29 NW12G18   29.95S
$$

NDZ022-023-025-028>030-036>039-047>053-032300-
SOUTHEAST NORTH DAKOTA

CITY           SKY/WX    TMP DP  RH WIND       PRES   REMARKS
FARGO          SUNNY     80  46  30 NW12G25   29.92S
JAMESTOWN      SUNNY     77  45  32 NW5       29.97S
$$



USA.gov is the U.S. government's official web portal to all federal, state and local government web resources and services.